Home   Weather   Swansea   Past weeks
Flag for United Kingdom

Past Weather in Swansea, Wales, United Kingdom — Yesterday and Last 2 Weeks

Now
62 °F

Cool.


Feels Like: 62 °F
Forecast: 65 / 59 °F
Wind: 28 mph from Southwest

Location: Mumbles

Current Time: Jul 18, 2019 at 12:01:51 am

Latest Report: Jul 17, 2019 at 11:00 pm


Visibility: N/A

Pressure: 29.86 "Hg

Humidity: 96%

Dew Point: 61 °F

Location of SwanseaLocation

Past Weather in Swansea — Graph

°F

Swansea Temperature Yesterday

Maximum temperature yesterday: 67 °F (at 1:00 pm)
Minimum temperature yesterday: 59 °F (at 6:00 am)
Average temperature yesterday: 63 °F

High & Low Weather Summary for the Past Weeks

 TemperatureHumidityPressure
High72 °F (Jul 4, 7:00 pm)98% (Jul 12, 12:00 am)30.38 "Hg (Jul 12, 12:00 am)
Low53 °F (Jul 3, 5:00 am)53% (Jul 3, 6:00 pm)29.88 "Hg (Jul 17, 10:00 pm)
Average63 °F77%30.14 "Hg
* Reported Jul 2 10:00 pm — Jul 17 10:00 pm, Swansea. Weather by CustomWeather, © 2019

Note: Actual official high and low records may vary slightly from our data, if they occured in-between our weather recording intervals... More about our weather records

Advertising

Swansea Weather History for the Previous 24 Hours

Scroll right to see more
 ConditionsComfort  
Time TempWeatherWind HumidityBarometerVisibility
10:00 pm
Wed, Jul 17
63 °FMild.23 mph87%29.88 "HgN/A
9:00 pm63 °FMild.20 mph90%29.89 "HgN/A
8:00 pm63 °FMild.17 mph89%29.90 "HgN/A
7:00 pm63 °FMild.21 mph81%29.91 "HgN/A
6:00 pm65 °FMild.17 mph81%29.93 "HgN/A
5:00 pm65 °FMild.20 mph82%29.94 "HgN/A
3:00 pm65 °FMild.15 mph77%29.96 "HgN/A
1:00 pm67 °FMild.18 mph75%29.99 "HgN/A
12:00 pm66 °FMild.15 mph82%30.00 "HgN/A
11:00 am66 °FMild.13 mph83%30.01 "HgN/A
10:00 am65 °FMild.12 mph84%30.01 "HgN/A
9:00 am64 °FMild.8 mph88%30.01 "HgN/A
8:00 am61 °FCool.2 mph85%30.02 "HgN/A
7:00 am60 °FCool.5 mph89%30.02 "HgN/A
6:00 am59 °FCool.3 mph90%30.02 "HgN/A
5:00 am59 °FCool.3 mph89%30.03 "HgN/A
4:00 am59 °FCool.8 mph88%30.04 "HgN/A
3:00 am60 °FCool.3 mph86%30.06 "HgN/A
2:00 am61 °FCool.6 mph81%30.07 "HgN/A
1:00 am61 °FCool.5 mph84%30.08 "HgN/A
12:00 am63 °FMild.5 mph78%30.09 "HgN/A
Weather by CustomWeather, © 2019

See weather overview